Location: LC-39B
(28.6273°N, 80.6211°W)
Time: 08:06:21
(UTC+00:00)

ISS - Visible Passes

Search period start: 02 July 2015 00:00
Search period end: 12 July 2015 00:00
Orbit: 398 x 403 km, 51.6° (Epoch: 01 July)

Date Brightness Start Highest point End Pass type
(mag) Time Alt. Az. Time Alt. Az. Time Alt. Az.
08 Jul -1.4 09:48:08 10° S 09:50:48 24° SE 09:53:32 10° ENE visible
09 Jul -0.5 08:56:49 10° SE 08:57:22 10° SE 08:58:05 10° ESE visible
10 Jul -3.3 09:37:33 17° SW 09:39:57 78° SE 09:43:11 10° NE visible
11 Jul -1.9 08:46:19 29° SE 08:46:26 29° SE 08:49:20 10° ENE visible
